Findlay, OH

8:04 PM EDT on July 30, 2016 (GMT -0400)
Findlay

Weather History for KFDY - January, 2013

Change the Weather History Date:

Tuesday, January 22, 2013

  Actual Average Record
Temperature  
Mean Temperature 8 °F -  
Max Temperature 14 °F 34 °F 59 °F (1999)
Min Temperature 3 °F 21 °F -9 °F (2014)
Degree Days  
Heating Degree Days 56    
Moisture  
Dew Point -2 °F    
Average Humidity 61    
Maximum Humidity 76    
Minimum Humidity 47    
Precipitation  
Precipitation 0.00 in - - ()
Sea Level Pressure  
Sea Level Pressure 30.28 in    
Wind  
Wind Speed 17 mph (West)    
Max Wind Speed 23 mph    
Max Gust Speed 28 mph    
Visibility 9 miles    
Events Snow    
Averages and records for this station are not official NWS values.
T = Trace of Precipitation, MM = Missing Value Source: NWS Daily Summary

Daily Weather History Graph

Daily Weather History Graph

Search for Another Location

Airport or City:

Trip Planner

Search our weather history database for the weather conditions in past years. The results will help you decide how hot, cold, wet, or windy it might be!

Date:

Astronomy

Jan. 22, 2013 Rise Set
Actual Time 7:53 AM EST 5:39 PM EST
Civil Twilight 7:23 AM EST 6:09 PM EST
Nautical Twilight 6:50 AM EST 6:43 PM EST
Astronomical Twilight 6:17 AM EST 7:15 PM EST
Moon 2:01 PM EST (1/22) 4:14 AM EST (1/22)
Length of Visible Light 10h 45m
Length of Day
9h 46m
Waxing Gibbous, 82% of the Moon is Illuminated
Jan 22
Waxing Gibbous
Jan 26
Full
Feb 3
Last Quarter
Feb 10
New
Feb 17
First Quarter

Hourly Weather History & Observations

Time (EST) Temp. Windchill Dew Point Humidity Pressure Visibility Wind Dir Wind Speed Gust Speed Precip Events Conditions
12:53 AM 8.1 °F -12.6 °F -4.0 °F 58% 30.17 in 10.0 mi West 23.0 mph 27.6 mph N/A   Clear
1:53 AM 7.0 °F -12.1 °F -2.9 °F 64% 30.18 in 10.0 mi West 18.4 mph - N/A   Clear
2:53 AM 7.0 °F -12.6 °F -2.9 °F 64% 30.20 in 10.0 mi West 19.6 mph 25.3 mph N/A   Clear
3:53 AM 6.1 °F -12.8 °F -2.9 °F 67% 30.21 in 10.0 mi West 17.3 mph - N/A   Clear
4:53 AM 6.1 °F -12.2 °F -2.9 °F 67% 30.22 in 10.0 mi West 16.1 mph - N/A   Clear
5:53 AM 5.0 °F -14.7 °F -4.0 °F 66% 30.24 in 10.0 mi West 18.4 mph 24.2 mph N/A   Clear
6:53 AM 5.0 °F -14.2 °F -2.9 °F 70% 30.26 in 10.0 mi West 17.3 mph - N/A   Clear
7:53 AM 3.9 °F -14.3 °F -2.9 °F 73% 30.28 in 10.0 mi West 15.0 mph - N/A   Clear
8:53 AM 6.1 °F -11.6 °F -2.9 °F 67% 30.30 in 10.0 mi West 15.0 mph - N/A   Clear
9:53 AM 9.0 °F -7.9 °F -2.0 °F 61% 30.32 in 10.0 mi West 15.0 mph - N/A   Partly Cloudy
10:33 AM 10.4 °F -7.2 °F -0.4 °F 62% 30.28 in 10.0 mi WNW 17.3 mph 23.0 mph N/A   Mostly Cloudy
10:53 AM 9.0 °F -7.3 °F -2.9 °F 59% 30.33 in 10.0 mi West 13.8 mph 20.7 mph N/A   Overcast
11:21 AM 10.4 °F -4.8 °F -2.2 °F 57% 30.29 in 10.0 mi West 12.7 mph - N/A   Overcast
11:36 AM 10.4 °F -6.0 °F -0.4 °F 62% 30.29 in 2.5 mi West 15.0 mph 21.9 mph 0.00 in Snow Light Snow
11:48 AM 10.4 °F -5.4 °F -2.2 °F 57% 30.29 in 6.0 mi West 13.8 mph - 0.00 in Snow Light Snow
11:53 AM 10.9 °F -5.9 °F -0.9 °F 59% 30.32 in 7.0 mi West 16.1 mph 25.3 mph 0.00 in   Overcast
12:02 PM 10.4 °F -4.1 °F -0.4 °F 62% 30.28 in 5.0 mi West 11.5 mph - 0.00 in Snow Light Snow
12:37 PM 12.2 °F -4.3 °F -2.2 °F 53% 30.27 in 9.0 mi West 16.1 mph - 0.00 in   Overcast
12:53 PM 12.9 °F -3.9 °F -0.0 °F 56% 30.30 in 10.0 mi West 17.3 mph 24.2 mph 0.00 in   Overcast
1:53 PM 14.0 °F -3.0 °F -2.9 °F 47% 30.28 in 10.0 mi West 18.4 mph - 0.00 in   Overcast
2:53 PM 12.9 °F -4.4 °F -2.9 °F 49% 30.29 in 10.0 mi West 18.4 mph 25.3 mph N/A   Mostly Cloudy
3:53 PM 12.0 °F -3.4 °F -0.9 °F 56% 30.30 in 10.0 mi West 13.8 mph 25.3 mph 0.00 in   Overcast
4:53 PM 10.9 °F -4.1 °F -0.0 °F 61% 30.30 in 7.0 mi WSW 12.7 mph - 0.00 in Snow Light Snow
5:53 PM 10.0 °F -6.5 °F -2.0 °F 58% 30.31 in 10.0 mi West 15.0 mph - 0.00 in   Mostly Cloudy
6:53 PM 10.0 °F -4.5 °F -2.9 °F 56% 30.32 in 10.0 mi West 11.5 mph - N/A   Clear
7:53 PM 10.0 °F -5.9 °F -2.9 °F 56% 30.32 in 10.0 mi West 13.8 mph - N/A   Clear
8:53 PM 9.0 °F -3.2 °F -2.0 °F 61% 30.31 in 10.0 mi West 8.1 mph - N/A   Clear
9:53 PM 7.0 °F -1.7 °F -0.9 °F 70% 30.32 in 10.0 mi North 4.6 mph - N/A   Clear
10:53 PM 5.0 °F -2.1 °F -0.9 °F 76% 30.32 in 10.0 mi SW 3.5 mph - N/A   Clear
11:53 PM 7.0 °F -4.5 °F -0.9 °F 70% 30.32 in 10.0 mi WSW 6.9 mph - N/A   Clear